Regional Weather Roundup
Issued by NWS Green Bay, WI

Home | Current Version | Previous Version | Graphics & Text | Print | Product List | Glossary Off
Versions: 1 2 3 4 5 6 7 8 9 10 11 12 13 14 15 16 17 18 19 20 21 22 23 24 25 26 27 28 29 30 31 32 33 34 35 36 37 38 39 40 41 42 43 44 45 46 47 48 49 50

000
ASUS43 KGRB 170200
RWRGRB

NORTH-CENTRAL AND NORTHEAST WISCONSIN REGIONAL WEATHER ROUNDUP
NATIONAL WEATHER SERVICE GREEN BAY WI
800 PM CST FRI FEB 16 2018

WIZ005-009-010>012-018-019-170300-
NORTH CENTRAL WISCONSIN

CITY           SKY/WX    TMP DP  RH WIND       PRES   REMARKS
IRONWOOD       FAIR      12  -5  46 SW14      30.00F WCI  -3
MANITOWISH WTR NOT AVBL
ARBOR VITAE    NOT AVBL
EAGLE RIVER    FAIR      11 -14  32 SW9       30.01F WCI  -2
LAND O LAKES   FAIR      11 -12  34 SW6       30.02F WCI   2
RHINELANDER    FAIR       9  -7  48 SW9       30.05F WCI  -4
PHILLIPS       NOT AVBL
ANTIGO         NOT AVBL
TOMAHAWK       NOT AVBL
MERRILL        NOT AVBL
$$

WIZ013-073-170300-
NORTHEAST WISCONSIN

CITY           SKY/WX    TMP DP  RH WIND       PRES   REMARKS
IRON MOUNTAIN  FAIR      14  -6  40 S6        30.04F WCI   5
MARINETTE      FAIR      18  -1  43 W6        30.16S WCI  10
$$

WIZ017-030-035>037-045-170300-
CENTRAL WISCONSIN

CITY           SKY/WX    TMP DP  RH WIND       PRES   REMARKS
MEDFORD        NOT AVBL
WAUSAU         FAIR      11  -7  44 SW6       30.12F WCI   1
MOSINEE        PTCLDY     9  -2  61 SW5       30.14F WCI   0
MARSHFIELD     FAIR      10  -5  50 SW7       30.13S WCI  -1
WISC RAPIDS    FAIR      16  -2  45 SW8       30.17F WCI   5
STEVENS POINT  NOT AVBL
WAUPACA        NOT AVBL
SHAWANO        NOT AVBL
CLINTONVILLE   FAIR      13   1  57 S6        30.17S WCI   4
WAUTOMA        FAIR      17   3  54 SW5       30.21R WCI  10
$$

WIZ038-039-048-051-170300-
FOX VALLEY

CITY           SKY/WX    TMP DP  RH WIND       PRES   REMARKS
NWS GREEN BAY  FAIR      19   4  51 W5        30.18F
APPLETON       PTCLDY    18  -6  35 SW7       30.16F WCI   8
OSHKOSH        FAIR      18   4  54 SW6       30.19F WCI  10
FOND DU LAC    FAIR      19   5  54 S8        30.21S WCI   9
$$

WIZ022-050-052-170300-
EAST CENTRAL WISCONSIN

CITY           SKY/WX    TMP DP  RH WIND       PRES   REMARKS
EPHRAIM        NOT AVBL
WASHINGTON ISL NOT AVBL
STURGEON BAY   NOT AVBL
MANITOWOC      FAIR      17   5  59 S6        30.20F WCI   9
SHEBOYGAN      FAIR      18   7  62 S7        30.20F WCI   9
$$

LMZ563-521-522-541>543-170300-
LAKESHORE

STATION/POSITION TIME  TEMP    WIND        PRES    VSBY  WAVE
                       AIR SEA DIR/SP/G                  HT/PER
                 (UTC) (F)     (DEG/KT/KT) (MB)    (MI)  (FT/S)
SHEBOYGAN LKSHOR 0100   23     240/  7/  8 1024.2F
KEWAUNEE LKSHORE 0130   20     240/  3/  7 1021.1F
NORTHPORT PIER   0140   18                 1020.7F
MENOMINEE LKSHOR 0130   19     220/ 10/ 14 1021.0R
$$




USA.gov is the U.S. government's official web portal to all federal, state and local government web resources and services.